Location: Newark
(13.4899°N, 1.4745°W)
Time: 10:07:16
(UTC+00:00)

OTV 5 (USA 277) - Visible Passes

Search period start: 16 July 2019 00:00
Search period end: 26 July 2019 00:00
Orbit: 299 x 335 km, 54.5° (Epoch: 13 July)

Date Brightness Start Highest point End Pass type
(mag) Time Alt. Az. Time Alt. Az. Time Alt. Az.
16 Jul ? 20:28:11 10° NW 20:29:09 18° WNW 20:29:09 18° WNW visible
17 Jul ? 19:09:13 10° N 19:11:09 17° NE 19:12:49 11° E visible
18 Jul ? 19:22:56 10° NNW 19:25:43 84° NE 19:27:30 20° SE visible
19 Jul ? 19:38:09 10° WNW 19:40:12 18° WSW 19:42:14 10° S visible
